Location: Roc des P�zouls
(43.9667°N, 3.5500°E)
Time: 02:51:09
(UTC+00:00)

Cosmos 1825 - Pass Details

Date: 14 November 2019
Orbit: 505 x 508 km, 82.5° (Epoch: 14 December)

Event Time Altitude Azimuth Distance (km) Brightness Sun altitude
Rises 05:08:51 0° 165° (SSE) 2,591 6.1 -16.2°
Reaches altitude 10° 05:11:06 10° 155° (SSE) 1,712 5.3 -15.8°
Maximum altitude 05:14:26 32° 91° (E) 897 4.2 -15.3°
Drops below altitude 10° 05:17:49 10° 28° (NNE) 1,726 5.1 -14.7°
Sets 05:20:06 0° 18° (NNE) 2,617 5.9 -14.3°
